Powrót do katalogu

STARLINK-3599

AktywnyŁącznośćVLEO
NORAD 51814·PAYLOAD·🇺🇸 United States

Wystrzelony Feb 25, 2022 z Vandenberg Space Force Base

Loading…

Następne Przeloty (najbliższe 24 godziny)

TLE

ŚwieżeSource: CelesTrak SupGP

Epoka: Sep 14, 2026, 21:36 UTC

1 51814C 22017AY  26257.90048611 -.00013393  00000+0 -38340-3 0  2570
2 51814  53.1581 190.3931 0001267  95.8483 177.1811 15.35386452    12

Śledź STARLINK-3599 w czasie rzeczywistym z AllMySat

Download on the App Store